Location: Biçisarri
(42.4820°N, 1.4605°E)
Time: 15:38:58
(UTC+00:00)

Cosmos 2098 Rocket - Pass Details

Date: 26 November 2025
Orbit: 350 x 871 km, 82.9° (Epoch: 12 December)

Event Time Altitude Azimuth Distance (km) Brightness Sun altitude
Rises 05:58:06 0° 351° (N) 3,084 6.4 -11.1°
Reaches altitude 10° 06:00:17 10° 351° (N) 2,235 5.6 -10.7°
Maximum altitude 06:05:23 85° 263° (W) 807 3.6 -9.8°
Drops below altitude 10° 06:11:03 10° 176° (S) 2,472 6.5 -8.8°
Sets 06:13:34 0° 176° (S) 3,434 7.2 -8.4°
